Starlink 6346

operational
NORAD ID: 57243 Int'l Des: 2023-094 Owner: SPXS Country: US Constellation: starlink
LEOCIRCULAR

关于 Starlink 6346

正在加载描述...

实时位置

正在加载3D地球...

即将过境

高度历史

Altitude vs Time

uPlot chart will show altitude changes over time

两行轨道根数

1 57243U 23094AB 25352.64898652 -.00000747 00000-0 -40257-4 0 9996
2 57243 43.0030 98.1670 0001023 267.6638 92.4087 15.02532758135072
Epoch: Dec 18, 2025 • Age: 12 hours

当前状态

高度 559.7 km
速度 7.59 km/s
星下点 27.00°N, 104.25°E
发射日期 Jul 7, 2023
运行时间 2.4 years
类型 internet

技术详情

分类 Payload
质量 305.00 kg
干质量 290.00 kg
总质量 305.00 kg
长度 0.20 m
直径 2.80 m
跨度 9.00 m
形状 Box + pan
制造商 SPXS
平台类型 Starlink
阶段状态 In Orbit
所有者/国家 SPXS/US

大型星座

Loading constellations...